Погода в Николаеве

Россия / Ростовская область     48°01′00″N   41°44′12″E
темп.,
°C
ветер,
м/с
пор.,
м/с
влажн.,
%
обл.,
%
осадки,
мм/ч
давл.,
гПа
погр.,
м
24 января, пн
пн2400:00−2всв71297100 0.9 1016513
03:00−4всв71395100 2.0 1018437
06:00−6всв7129498 0.5 1019339
09:00−7всв61195100 0.8 1020330
12:00−5всв6109499 0.2 1021366
15:00−4всв5895100 0.6 1021335
18:00−4св5996100 0.3 1022299
21:00−4всв5897100 1.7 1022284
25 января, вт
вт2500:00−4всв3697100 1.4 1023186
03:00−4в229899 1.5 102353
06:00−8всв1110094 0.1 102311
09:00−3ююв2296100 0.1 102478
12:00−1ююз2397100 0.0 1023323
15:000юз3594100 0.2 1023436
18:00−2юз3698100 0.0 1023156
21:00−2юз3697100 0.0 1023196
26 января, ср
ср2600:00−6ююз3499100 0.0 102354
03:00−5юз3699100 0.0 1022154
06:00−6юз3599100 0.0 1021191
09:00−4юз2395100 0.0 1022217
12:00−2ю2389100 0.0 1021549
15:00−1юв229188 0.0 1021194
18:00−7вюв2297100 0.0 102226
21:00−4вюв2596100 0.0 1022110
27 января, чт
чт2700:00−3вюв3696100 0.0 1022211
03:00−6в3798100 0.0 1021124
06:00−6в3698100 0.0 1021136
09:00−4в3697100 0.6 1021213
12:00−3вюв4696100 1.0 1020385
15:00−2вюв3596100 1.6 1019363
18:00−5вюв249886 0.3 102054
21:00−8вюв229888 0.4 102032
28 января, пт
пт2800:00−7юв2297100 0.3 102027
03:00−9ююз229996 0.4 101923
06:00−11зюз3710098 0.1 102092
09:00−10юз369871 0.1 102198
12:00−6юз489254 0.0 1020269
15:00−3ююз5109483 0.0 1018461
18:00−2ююз61495100 0.1 1017517
21:00−2ююз7169798 0.5 1016547